Hourly Data Report for October 30, 2013

All times are specified in Local Standard Time (LST). Add 1 hour to adjust for Daylight Saving Time where and when it is observed.

KUGAARUK CLIMATE
NUNAVUT

68°32'15.060" N
89°47'47.020" W
15.80 m
2303094
71407
NBB

Download Data

Hourly Data (October 2013)
Hourly Data Report for October 30, 2013
Temp Definition
°C
Dew Point Temp Definition
°C
Rel Hum Definition
%
Wind Dir Definition
10's deg

Wind Spd Definition
km/h
Visibility Definition
km
Stn Press Definition
kPa
Hmdx Definition


Wind Chill Definition


Weather Definition


TIME
00:00 -17.0 -18.8 86 29 2   100.84   -19 LegendNANA
01:00 -16.8 -18.7 85 23 2   100.84   -18 LegendNANA
02:00 -16.9 -18.8 85 21 6   100.83   -21 LegendNANA
03:00 -17.2 -19.1 85 27 6   100.84   -22 LegendNANA
04:00 -17.5 -19.4 85 25 6   100.85   -22 LegendNANA
05:00 -17.4 -19.3 85 30 2   100.85   -19 LegendNANA
06:00 -17.6 -19.5 85 13 7   100.83   -23 LegendNANA
07:00 -18.0 -20.0 84 8 6   100.82   -23 LegendNANA
08:00 -17.8 -19.7 85 12 11   100.80   -25 LegendNANA
09:00 -16.9 -18.8 85 9 9   100.78   -23 LegendNANA
10:00 -16.4 -18.2 86 3 2   100.77   -18 LegendNANA
11:00 -15.9 -17.6 87 4 4   100.75   -19 LegendNANA
12:00 -15.5 -17.2 87 3 4   100.72   -18 LegendNANA
13:00 -15.3 -17.0 87 8 2   100.73   -17 LegendNANA
14:00 -14.7 -16.4 87 7 2   100.75   -16 LegendNANA
15:00 -14.4 -16.1 87 7 6   100.75   -19 LegendNANA
16:00 -13.7 -15.3 88 10 11   100.77   -20 LegendNANA
17:00 -14.2 -15.8 88 8 11   100.79   -21 LegendNANA
18:00 -14.7 -16.4 87 11 9   100.79   -20 LegendNANA
19:00 -15.1 -16.8 87 12 6   100.78   -19 LegendNANA
20:00 -15.6 -17.3 87 8 6   100.79   -20 LegendNANA
21:00 -16.2 -18.0 86 6 4   100.82   -19 LegendNANA
22:00 -16.1 -17.9 86 8 2   100.81   -18 LegendNANA
23:00 -16.2 -18.0 86 7 2   100.81   -18 LegendNANA

Notes on Data Quality.

Legend

  • E = Estimated
  • M = Missing
  • NA = Not Available
  • ‡ = Partner data that is not subject to review by the National Climate Archives
Date modified: